This demonstration page uses our WeatherBlox Daily Observations layout. Learn more.

Left ArrowRight Arrow

Hourly Observations for June 21, 2021

Temp ( °F °C ) Dew Point ( °F °C ) Humidity (%) Winds ( mph kmh ) Pressure ( in mb ) Visibility ( mi km ) Precip ( " mm )
12:15 am 00:15 Partly Cloudy 65 18.5 50 10 58 58 N 5 7 29.90 1012 10 16 N/A
12:35 am 00:35 Clear 63 17.2 51 10.5 65 65 NNW 7 11 29.93 1013 10 16 N/A
12:55 am 00:55 Clear 64 17.6 50 10.1 62 62 NW 7 11 29.93 1014 10 16 N/A
1:15 am 01:15 Clear 64 17.6 51 10.5 63 63 NW 9 15 29.96 1015 10 16 N/A
1:35 am 01:35 Partly Cloudy 63 17.2 51 10.5 65 65 N N/A 29.92 1013 10 16 N/A
1:55 am 01:55 Clear 62 16.6 51 10.6 68 68 NNW 5 7 29.93 1014 10 16 N/A
2:15 am 02:15 Clear 62 16.5 51 10.7 69 69 NW 10 17 29.95 1014 10 16 N/A
2:35 am 02:35 Mostly Cloudy 63 17 51 10.6 66 66 NW 9 15 29.97 1015 10 16 N/A
2:55 am 02:55 Cloudy with Light Rain 62 16.7 53 11.5 72 72 WNW 5 7 29.97 1015 10 16 N/A
3:15 am 03:15 Cloudy 61 16.3 54 12.1 76 76 WNW 7 11 29.98 1015 10 16 N/A
3:35 am 03:35 Mostly Cloudy 61 16.1 54 12.1 77 77 WNW 7 11 29.99 1015 10 16 N/A
3:55 am 03:55 Cloudy 62 16.5 53 11.5 72 72 NW 10 17 30.00 1016 10 16 N/A
4:15 am 04:15 Cloudy 62 16.5 53 11.5 72 72 NW 7 11 30.01 1016 10 16 N/A
4:35 am 04:35 Mostly Cloudy 61 16.3 53 11.5 73 73 N N/A 30.00 1016 10 16 N/A
4:55 am 04:55 Partly Cloudy 60 15.8 53 11.6 76 76 WNW 5 7 30.02 1017 10 16 N/A
5:15 am 05:15 Clear 60 15.3 54 12.3 82 82 WNW 5 7 30.03 1017 10 16 N/A
5:35 am 05:35 Clear 59 15 54 12 82 82 NW 5 7 30.03 1017 10 16 N/A
5:55 am 05:55 Clear 58 14.6 54 12 85 85 WNW 6 9 30.06 1018 10 16 N/A
6:15 am 06:15 Partly Cloudy 58 14.7 53 11.9 83 83 WNW 7 11 30.05 1018 10 16 N/A
6:35 am 06:35 Mostly Cloudy 59 14.9 53 11.7 81 81 WNW 5 7 30.06 1018 10 16 N/A
6:55 am 06:55 Partly Cloudy 58 14.2 53 11.8 86 86 NW 3 6 30.07 1018 10 16 N/A
7:15 am 07:15 Sunny 59 15 54 12.1 83 83 NW 5 7 30.07 1018 10 16 N/A
7:35 am 07:35 Sunny 60 15.5 53 11.9 79 79 NW 6 9 30.06 1018 10 16 N/A
7:55 am 07:55 Sunny 61 16.3 53 11.5 73 73 NW 7 11 30.05 1018 10 16 N/A
8:15 am 08:15 Sunny 62 16.8 51 10.7 67 67 NNW 7 11 30.05 1018 10 16 N/A
8:35 am 08:35 Sunny 64 17.6 51 10.8 65 65 NNW 7 11 30.05 1018 10 16 N/A
8:55 am 08:55 Mostly Cloudy 64 17.5 51 10.5 64 64 N 6 9 30.06 1018 10 16 N/A
9:15 am 09:15 Mostly Cloudy 65 18.2 51 10.6 61 61 NW 5 7 30.06 1018 10 16 N/A
9:35 am 09:35 Partly Cloudy 67 19.3 51 10.6 57 57 NW 5 7 30.05 1018 10 16 N/A
9:55 am 09:55 Sunny 68 20 50 10.2 53 53 NE 3 6 30.04 1017 10 16 N/A
10:15 am 10:15 Sunny 69 20.3 49 9.3 49 49 N 5 7 30.04 1017 10 16 N/A
10:35 am 10:35 Sunny 69 20.5 48 9.1 48 48 N N/A 30.04 1017 10 16 N/A
10:55 am 10:55 Sunny 70 21.3 48 9.1 46 46 N 5 7 30.03 1017 10 16 N/A
11:15 am 11:15 Sunny 71 21.7 47 8.4 43 43 N N/A 30.03 1017 10 16 N/A
11:35 am 11:35 Partly Cloudy 72 22.3 47 8.4 41 41 W 8 13 30.02 1017 10 16 N/A
11:55 am 11:55 Sunny 73 22.5 46 7.7 39 39 NW 7 11 30.02 1017 10 16 N/A
12:15 pm 12:15 Partly Cloudy 74 23.3 44 6.8 35 35 NNW 10 17 30.00 1016 10 16 N/A
12:35 pm 12:35 Mostly Cloudy 73 22.9 44 6.9 36 36 WNW 9 15 30.02 1016 10 16 N/A
12:55 pm 12:55 Cloudy 73 23 46 7.5 37 37 W 8 13 30.01 1016 10 16 N/A
1:15 pm 13:15 Cloudy 74 23.6 45 7.2 35 35 WNW 13 20 29.99 1016 10 16 N/A
1:35 pm 13:35 Cloudy 74 23.3 44 6.9 35 35 NNW 12 19 29.99 1016 10 16 N/A
1:55 pm 13:55 Mostly Cloudy 74 23.4 44 6.8 34 34 NNW 10 17 29.99 1016 10 16 N/A
2:15 pm 14:15 Mostly Cloudy 75 24 44 6.7 33 33 NW 8 13 29.98 1015 10 16 N/A
2:35 pm 14:35 Mostly Cloudy 75 23.9 46 7.8 36 36 W 12 19 29.97 1015 10 16 N/A
2:55 pm 14:55 Partly Cloudy 76 24.7 46 7.7 34 34 W 13 20 29.96 1015 10 16 N/A
3:15 pm 15:15 Mostly Cloudy 75 24 46 7.8 36 36 W 20 31 29.97 1015 10 16 N/A
3:35 pm 15:35 Partly Cloudy 75 23.7 47 8.5 38 38 W 16 26 29.96 1015 10 16 N/A
3:55 pm 15:55 Sunny 76 24.2 46 7.5 34 34 W 15 24 29.95 1014 10 16 N/A
4:15 pm 16:15 Sunny 77 24.9 45 7.2 32 32 W 14 22 29.93 1014 10 16 N/A
4:35 pm 16:35 Sunny 77 25 45 7.1 32 32 WNW 12 19 29.93 1014 10 16 N/A
4:55 pm 16:55 Partly Cloudy 77 25 45 7.4 33 33 W 10 17 29.92 1013 10 16 N/A
5:15 pm 17:15 Partly Cloudy 78 25.5 46 7.6 32 32 WNW 12 19 29.91 1013 10 16 N/A
5:35 pm 17:35 Mostly Cloudy 76 24.5 46 7.8 34 34 NW 10 17 29.91 1013 10 16 N/A
5:55 pm 17:55 Mostly Cloudy 77 24.8 47 8.3 35 35 NNW 8 13 29.91 1013 10 16 N/A
6:15 pm 18:15 Sunny 78 25.3 47 8.1 34 34 WNW 9 15 29.89 1012 10 16 N/A
6:35 pm 18:35 Sunny 78 25.6 47 8.3 33 33 WNW 10 17 29.88 1012 10 16 N/A
6:55 pm 18:55 Sunny 78 25.6 48 8.8 35 35 W 10 17 29.87 1012 10 16 N/A
7:15 pm 19:15 Sunny 77 25.2 47 8.1 34 34 W 9 15 29.87 1011 10 16 N/A
7:35 pm 19:35 Sunny 77 25 47 8.4 35 35 W 7 11 29.88 1012 10 16 N/A
7:55 pm 19:55 Partly Cloudy 76 24.5 51 10.4 41 41 WSW 5 7 29.88 1012 10 16 N/A
8:15 pm 20:15 Sunny 74 23.5 52 10.9 45 45 WSW 5 7 29.89 1012 10 16 N/A
8:35 pm 20:35 Sunny 74 23.5 48 8.7 39 39 SSW 3 6 29.89 1012 10 16 N/A
8:55 pm 20:55 Sunny 72 22.2 50 10 46 46 NNE 5 7 29.91 1013 10 16 N/A
9:15 pm 21:15 Clear 72 22.4 49 9.3 43 43 N N/A 29.91 1013 10 16 N/A
9:35 pm 21:35 Hazy 65 18.4 51 10.8 61 61 ENE 7 11 29.95 1014 5 8 N/A
9:55 pm 21:55 Clear 66 18.8 50 10 57 57 E 5 7 29.95 1014 10 16 N/A
10:15 pm 22:15 Clear 66 19 48 8.9 52 52 E 5 7 29.95 1014 10 16 N/A
10:35 pm 22:35 Clear 65 18.1 47 8.2 53 53 N N/A 29.96 1015 7 11 N/A
10:55 pm 22:55 Clear 63 17.3 49 9.6 61 61 N N/A 29.97 1015 10 16 N/A
11:15 pm 23:15 Clear 60 15.8 51 10.5 71 71 N N/A 29.98 1015 7 11 N/A
11:35 pm 23:35 Clear 60 15.5 47 8.3 62 62 N N/A 29.97 1015 10 16 N/A
11:55 pm 23:55 Clear 59 14.9 52 10.9 77 77 SSE 5 7 29.98 1015 7 11 N/A

Powered by AerisWeather